Regional Weather Roundup
Issued by NWS

Home | Current Version | Previous Version | Graphics & Text | Print | Product List | Glossary On
Versions: 1 2 3 4 5 6 7 8 9 10 11 12 13 14 15 16 17 18 19 20 21 22 23 24 25 26 27 28 29 30 31 32 33 34 35 36 37 38 39 40 41 42 43 44 45 46 47 48 49 50
000
ASUS43 KMPX 031101
RWRMN
WEATHER ROUNDUP FOR MINNESOTA
NATIONAL WEATHER SERVICE TWIN CITIES/CHANHASSEN MN
500 AM CST SAT DEC 03 2016


NOTE: "FAIR" INDICATES FEW OR NO CLOUDS BELOW 12,000 FEET WITH NO
SIGNIFICANT WEATHER AND/OR OBSTRUCTIONS TO VISIBILITY. N/A MEANS
CURRENT SKY AND/OR WEATHER CONDITIONS ARE NOT AVAILABLE.

MNZ060>063-068>070-031200-
   Twin Cities Metro

CITY           SKY/WX    TMP DP  RH WIND       PRES   REMARKS
TWIN CITIES    CLOUDY    29  21  72 W7        30.31  WCI  22
ST PAUL        CLOUDY    29  25  85 SW8       30.33  WCI  21
CRYSTAL        CLOUDY    29  20  69 SW7       30.30  WCI  22
BLAINE         CLOUDY    30  25  80 SW7       30.30R WCI  23
LAKEVILLE      CLOUDY    27  21  80 W6        30.31S WCI  20
EDEN PRAIRIE   CLOUDY    30  20  66 W3        30.30
SOUTH ST PAUL  CLOUDY    30  23  76 W7        30.32R WCI  23
LAKE ELMO      CLOUDY    30  28  93 SW7       30.31R WCI  23
$$
MNZ001>005-007-008-013>017-022>024-027-028-031200-
   Northwest Minnesota

CITY           SKY/WX    TMP DP  RH WIND       PRES   REMARKS
BEMIDJI        CLOUDY    24  18  79 S5        30.23S WCI  18
HALLOCK        CLOUDY    28  25  86 S13       30.18F WCI  18
ROSEAU         CLOUDY    28  23  80 S6        30.19F WCI  22
WARROAD        CLOUDY    27  21  80 S5        30.20F WCI  21
THIEF RVR FALL CLOUDY    26  20  77 SW12      30.22F WCI  16
CROOKSTON      CLOUDY    27  21  80 S10       30.24S WCI  17
FOSSTON        CLOUDY    23  18  80 S12       30.23F WCI  12
MOORHEAD       CLOUDY    25  18  74 S7        30.25F WCI  17
PARK RAPIDS    CLOUDY    24  16  71 SW5       30.22  WCI  18
$$
MNZ006-009>011-018-025>026-031200-
   North Central Minnesota

CITY           SKY/WX    TMP DP  RH WIND       PRES   REMARKS
BAUDETTE       CLOUDY    24  21  88 S5        30.21  WCI  18
FLAG ISLAND    CLOUDY    25  19  80 S3        30.19F
INTL FALLS     CLOUDY    24  20  84 SW7       30.22F WCI  16
WASKISH        CLOUDY    25  21  86 CALM      30.22F
BIG FORK       CLOUDY    25  21  86 CALM      30.23S
LONGVILLE      CLOUDY    25  19  80 CALM      30.24F
GRAND RAPIDS   CLOUDY    25  20  81 CALM      30.26S
CRANE LAKE     CLOUDY    21  19  93 CALM      30.26F
ORR            CLOUDY    21  18  86 CALM      30.21S
COOK           CLOUDY    23  21  93 SW6       30.24S WCI  16
$$
MNZ012-019>021-037-031200-
   Northeast Minnesota

CITY           SKY/WX    TMP DP  RH WIND       PRES   REMARKS
DULUTH         CLOUDY    27  24  89 W5        30.22F WCI  22
ELY            CLOUDY    23  21  93 CALM      30.22S
HIBBING        CLOUDY    23  19  85 W5        30.24S WCI  17
EVELETH        CLOUDY    25  23  91 W5        30.24S WCI  19
DULUTH HARBOR  CLOUDY    30  25  80 W7        30.28F WCI  23
TWO HARBORS    CLOUDY    30  25  80 CALM      30.22F
SILVER BAY     CLOUDY    28  25  86 CALM      30.22S
GRAND MARAIS     N/A     31  23  72 NW6       30.25S WCI  25
G MARAIS ARPRT PTCLDY    19  16  86 CALM      30.20R
$$
MNZ029>031-032-039>041-046>048-054>057-064-031200-
   West Central Minnesota

CITY           SKY/WX    TMP DP  RH WIND       PRES   REMARKS
FERGUS FALLS   CLOUDY    25  18  74 S7        30.29F WCI  17
WHEATON        CLOUDY   N/A N/A N/A SW5       30.28F
MORRIS         CLOUDY    27  19  74 S5        30.27S WCI  21
ALEXANDRIA     CLOUDY    24  19  81 W8        30.26  WCI  15
ELBOW LAKE     CLOUDY    24  18  78 SW5       30.26F WCI  18
WADENA         CLOUDY    23  18  80 SW3       30.24F
GLENWOOD       CLOUDY    25  19  80 CALM      30.27S
APPLETON       CLOUDY    27  19  74 CALM      30.28S
BENSON         CLOUDY    27  18  69 CALM      30.29R
ORTONVILLE     CLOUDY    27  18  69 CALM      30.27S
MADISON        CLOUDY    28  23  80 S3        30.29R
WILLMAR        CLOUDY    28  21  74 CALM      30.31R
$$
MNZ033>034-036-042>043-049>051-058-059-031200-
   Central Minnesota

CITY           SKY/WX    TMP DP  RH WIND       PRES   REMARKS
ST CLOUD       CLOUDY    28  22  78 SW7       30.29  WCI  21
PAYNESVILLE    CLOUDY    26  19  76 CALM      30.29S
AITKIN         CLOUDY    27  19  74 CALM      30.24F
PINE RIVER     CLOUDY    25  19  80 SW3       30.27F
BRAINERD       CLOUDY    25  20  81 SW6       30.26S WCI  18
STAPLES        CLOUDY    23  18  80 SW3       30.26S
LONG PRAIRIE   CLOUDY    25  19  80 SW5       30.28R WCI  19
LITTLE FALLS   CLOUDY    28  19  69 CALM      30.27S
LITCHFIELD     CLOUDY    28  21  74 CALM      30.29F
MAPLE LAKE     CLOUDY    29  24  81 W3        30.31R
$$
MNZ037-044-045-052-053-031200-
   East Central Minnesota

CITY           SKY/WX    TMP DP  RH WIND       PRES   REMARKS
PRINCETON      CLOUDY    28  25  86 CALM      30.29S
MORA           CLOUDY    28  23  80 W3        30.30R
CAMBRIDGE      CLOUDY    30  21  69 CALM      30.28R
RUSH CITY      CLOUDY    28  25  86 W3        30.29R
MOOSE LAKE     CLOUDY    28  23  80 CALM      30.24S
HINCKLEY       CLOUDY    30  27  86 CALM      30.28R
CLOQUET        CLOUDY    27  21  80 CALM      30.24S
MCGREGOR       CLOUDY    28  23  80 CALM      30.25F
$$
MNZ071>073-080-081-089-090-097-098-031200-
   Southwest Minnesota

CITY           SKY/WX    TMP DP  RH WIND       PRES   REMARKS
MONTEVIDEO     MOCLDY    25  25 100 CALM      30.31S
GRANITE FALLS  CLOUDY    29  21  73 S6        30.32S WCI  23
MARSHALL       MOCLDY    22  18  85 SW6       30.31S WCI  14
REDWOOD FALLS  CLOUDY    28  19  69 W3        30.31
OLIVIA         CLOUDY    30  23  74 SW5       30.30S WCI  25
PIPESTONE      CLOUDY    27  23  86 S3        30.26F
WINDOM         CLOUDY    27  19  74 CALM      30.30S
WORTHINGTON    CLOUDY    27  23  85 CALM      30.29F
JACKSON        CLOUDY    27  19  74 W6        30.30F WCI  20
TRACY          CLOUDY    25  20  81 CALM      30.29F
SLAYTON        MOCLDY    24  20  82 CALM      30.29F
$$
MNZ065>067-074>077-082>085-091>093-031200-
   South Central Minnesota

CITY           SKY/WX    TMP DP  RH WIND       PRES   REMARKS
MANKATO        CLOUDY    28  23  81 W5        30.32S WCI  23
NEW ULM        CLOUDY    28  19  69 W5        30.32S WCI  23
ST JAMES       CLOUDY    28  21  74 W5        30.33S WCI  23
FAIRMONT       CLOUDY    28  20  71 NW8       30.32S WCI  20
GLENCOE        CLOUDY    29  23  79 W3        30.30S
FARIBAULT      CLOUDY    28  23  80 CALM      30.31F
OWATONNA       MIX PCPN  28  21  74 CALM      30.30F
WASECA         MIX PCPN  28  27  93 NW5       30.32S WCI  23
ALBERT LEA     CLOUDY    32  25  74 W5        30.30F WCI  27
$$
MNZ078>079-086>088-094>096-031200-
   Southeast Minnesota

CITY           SKY/WX    TMP DP  RH WIND       PRES   REMARKS
ROCHESTER      CLOUDY    28  22  78 CALM      30.30S
RED WING       CLOUDY    30  21  69 W6        30.31S WCI  24
STANTON        CLOUDY    30  22  73 CALM      30.30F
DODGE CENTER   MIX PCPN  27  23  86 CALM      30.30S
WINONA         CLOUDY    32  23  69 SW3       30.34S
AUSTIN         CLOUDY    28  21  74 SW5       30.30S WCI  23
PRESTON        CLOUDY    28  23  80 CALM      30.31S
$$
ABBREVIATIONS USED IN REMARKS
   TC - TEMPERATURES IN CELSIUS
  WCI - WIND CHILL INDEX
   HX - HEAT INDEX
  VSB - VISIBILITY
$$




USA.gov is the U.S. government's official web portal to all federal, state and local government web resources and services.